Lapse_Rate
7.1 7.1 7.1 7.2 7.3 7.9 8.6 9.4 9.2 7.6 7.1 6.5 7.3 6.9 7.3 7.0 6.9 6.4 6.0 6.2 7.3 7.1 6.8 6.8 6.8 6.7 6.6 6.5 6.4 6.5 6.4 6.6 6.6 6.5 6.5 6.7 6.9 6.9 7.0 7.0 7.0 7.0 7.0 7.0 7.1 7.2 7.2 7.2 7.1
7.3 7.2 7.5 7.3 7.8 9.1 9.5 9.4 9.0 7.6 5.9 6.2 6.7 6.2 6.5 6.5 6.8 6.4 6.2 6.2 6.5 6.7 6.5 6.7 6.5 6.7 6.6 6.5 6.5 6.5 6.6 6.7 6.6 6.6 6.7 6.8 6.9 6.8 6.8 6.8 6.9 6.9 6.9 7.0 7.0 7.1 7.0 7.0 7.1
7.8 7.6 7.4 8.2 8.6 9.5 9.6 9.3 8.3 6.7 6.4 6.2 6.9 6.9 6.4 6.5 6.4 6.1 6.0 6.1 6.5 6.5 6.4 6.4 6.4 6.8 6.6 6.6 6.5 6.6 6.7 6.7 6.6 6.6 6.7 6.8 6.8 6.7 6.7 6.8 6.8 6.8 6.8 6.8 6.8 6.9 6.7 6.8 6.8
8.0 7.8 7.9 8.4 9.6 9.6 9.5 8.0 7.3 6.9 6.4 6.1 6.9 6.8 6.3 6.0 6.1 5.7 5.7 5.7 5.8 5.9 5.7 6.4 7.1 7.0 6.8 6.6 6.6 6.8 6.9 6.7 6.6 6.6 6.6 6.6 6.6 6.7 6.7 6.7 6.7 6.6 6.7 6.7 6.5 6.6 6.6 6.6 6.6
7.9 8.2 8.7 9.2 9.6 9.6 9.2 7.9 7.7 6.4 6.4 6.3 6.4 6.6 6.4 5.6 5.9 5.2 5.2 5.5 5.1 5.4 5.6 6.7 7.5 7.1 7.0 6.8 7.0 7.0 6.9 6.6 6.6 6.5 6.5 6.5 6.5 6.5 6.6 6.6 6.6 6.7 6.6 6.5 6.4 6.3 6.3 6.4 6.5
8.0 8.5 9.2 9.5 9.6 9.6 9.2 7.5 7.2 6.6 6.1 6.3 6.2 6.2 6.4 6.2 5.8 5.3 5.2 5.5 5.8 5.3 6.1 7.5 7.5 7.2 7.1 7.0 7.1 7.0 6.9 6.6 6.5 6.5 6.4 6.4 6.4 6.4 6.5 6.5 6.5 6.5 6.4 6.4 6.3 6.3 6.3 6.2 6.2
8.1 8.9 9.3 9.5 9.4 8.7 8.9 7.6 7.3 6.5 6.5 6.1 6.4 6.0 6.3 5.8 5.5 5.3 4.9 4.8 5.6 5.5 6.2 7.3 7.5 7.6 7.5 7.1 7.2 6.9 6.7 6.5 6.4 6.4 6.4 6.3 6.3 6.3 6.4 6.5 6.5 6.4 6.3 6.4 6.3 6.3 6.2 6.1 6.1
8.2 8.8 9.4 9.4 8.8 8.7 7.6 7.5 7.2 6.8 6.3 7.0 6.4 6.5 6.7 6.3 6.1 5.2 4.9 5.2 5.6 5.6 7.0 7.6 7.8 7.5 7.3 7.3 6.9 6.6 6.5 6.4 6.5 6.4 6.3 6.2 6.2 6.3 6.4 6.5 6.4 6.3 6.2 6.3 6.2 6.1 6.0 5.9 5.9
8.1 8.7 9.4 7.9 8.4 8.5 6.7 7.1 6.6 6.3 6.6 6.8 6.8 6.6 6.8 6.6 5.8 5.1 6.2 5.9 6.8 7.0 7.5 7.6 7.5 7.3 7.2 7.0 6.7 6.6 6.5 6.5 6.3 6.2 6.2 6.2 6.2 6.4 6.6 6.6 6.3 6.3 6.2 6.2 6.0 5.9 5.9 5.8 5.8
8.3 9.0 8.9 8.2 7.9 7.3 6.6 7.2 6.4 7.0 7.1 7.3 6.9 7.4 7.4 6.9 6.3 5.9 6.7 6.6 6.9 7.3 7.3 7.2 7.2 7.1 7.1 6.8 6.8 6.7 6.5 6.4 6.3 6.2 6.3 6.3 6.4 6.6 6.5 6.4 6.3 6.3 6.3 6.2 6.2 5.9 5.7 5.7 5.3
8.5 8.9 8.6 8.8 8.4 8.0 8.2 7.1 6.8 7.3 7.2 7.5 8.1 8.0 7.2 6.8 6.6 6.6 6.8 6.9 7.1 7.1 7.2 7.2 7.2 7.1 6.9 6.9 6.8 6.7 6.5 6.4 6.3 6.3 6.3 6.5 6.6 6.6 6.5 6.5 6.6 6.5 6.6 6.3 6.2 6.1 5.7 5.7 5.7
8.6 8.8 8.5 8.5 7.9 7.8 7.2 6.7 7.0 6.8 7.3 8.0 7.8 7.6 6.9 6.4 6.2 6.5 7.0 6.7 7.1 7.0 6.9 6.9 7.0 7.0 6.8 6.7 6.5 6.5 6.5 6.3 6.2 6.4 6.4 6.4 6.6 6.7 6.7 6.9 6.7 6.3 6.4 6.6 6.1 5.7 6.0 5.8 5.7
8.5 8.6 8.4 7.3 8.0 8.0 7.7 7.5 5.7 8.1 8.7 8.2 7.5 7.1 7.1 6.8 6.7 6.9 6.5 6.9 7.0 7.1 7.2 7.1 7.0 6.7 6.5 6.4 6.4 6.5 6.5 6.1 6.2 6.3 6.5 6.7 6.5 6.4 5.8 6.5 6.8 6.4 6.3 6.3 6.1 6.0 5.9 5.9 5.8
9.0 8.4 8.0 8.7 8.6 8.3 9.0 8.7 8.9 8.6 8.3 7.6 7.7 7.2 7.0 6.8 6.7 6.5 6.5 6.7 7.0 7.0 6.9 6.8 6.8 6.8 6.6 6.6 6.4 6.3 6.3 6.4 6.3 6.3 6.5 6.6 7.3 7.1 6.6 6.7 6.7 6.6 6.7 6.4 6.3 6.0 5.7 5.8 5.9
8.3 8.2 8.4 8.9 9.2 9.2 8.9 9.3 9.0 8.3 7.9 7.7 7.6 7.5 7.2 7.0 6.8 6.6 6.6 6.8 6.8 6.8 7.1 7.1 6.8 6.6 6.5 6.6 6.6 6.4 6.2 6.3 6.0 6.1 6.5 7.9 7.2 6.5 6.4 6.5 6.0 6.0 6.4 6.5 6.2 6.2 6.2 6.3 6.2
8.3 8.1 8.5 9.1 9.0 9.2 8.7 9.2 8.7 8.1 7.9 7.8 7.7 7.5 7.2 7.0 6.9 6.7 7.0 6.9 6.9 6.9 6.9 6.7 6.6 6.4 6.6 6.6 6.7 6.9 6.8 6.0 6.2 6.5 7.0 7.1 7.4 6.9 6.7 6.5 6.4 6.4 6.4 6.4 6.4 6.2 6.2 6.4 6.4
9.0 8.9 9.2 9.2 9.3 9.2 8.8 9.0 8.7 8.4 8.4 8.0 7.7 7.5 7.4 7.3 7.0 7.4 7.3 7.1 6.8 6.6 6.9 6.8 6.5 6.6 6.6 6.4 5.7 6.3 6.0 5.4 5.5 6.2 6.5 6.6 6.6 6.5 6.5 6.8 6.7 6.3 6.5 6.7 6.7 6.8 6.7 6.5 6.3
9.6 9.5 9.5 9.4 9.3 9.2 9.3 9.2 8.8 8.7 8.8 8.5 8.1 7.8 7.5 7.9 7.7 7.6 7.3 7.2 6.9 6.8 6.8 6.8 6.7 6.3 6.3 6.4 6.3 6.3 6.5 5.7 5.8 5.6 6.0 6.1 6.5 6.5 6.5 6.7 6.9 7.0 6.6 6.4 6.2 6.1 6.0 5.8 5.7
9.6 9.7 9.6 9.6 9.3 9.6 9.6 9.2 8.7 8.6 8.5 8.3 7.9 7.6 7.3 7.3 7.7 7.6 7.6 7.4 7.1 7.1 6.8 6.8 6.6 6.5 6.5 6.4 6.3 6.3 6.0 6.1 6.0 6.0 6.0 6.2 6.4 6.5 6.5 6.5 6.9 6.9 6.4 6.5 6.6 6.5 6.5 6.5 6.4
9.5 9.5 9.6 9.6 9.1 9.1 9.3 9.1 8.8 8.8 8.5 8.0 7.8 7.5 7.2 7.6 7.9 7.7 7.5 7.4 7.2 7.2 7.0 7.1 6.9 6.8 6.7 6.4 6.2 6.0 5.9 6.0 6.0 6.1 6.1 6.3 6.4 6.7 6.7 6.8 6.6 6.6 6.6 6.3 6.3 6.3 6.3 6.2 6.1
9.5 9.5 9.2 9.5 9.1 9.1 9.5 9.3 8.3 8.4 8.1 7.9 7.8 7.7 7.4 7.6 7.7 7.6 7.7 7.8 7.7 7.6 7.3 6.9 6.8 6.6 6.2 5.9 5.8 5.7 5.6 5.5 5.4 5.6 5.5 5.7 5.7 6.0 6.3 6.3 6.3 6.1 6.1 6.1 5.9 5.8 5.8 5.7 5.4
9.5 9.2 9.4 9.6 9.1 9.4 9.0 9.6 8.7 8.3 8.9 8.9 8.6 7.5 7.1 6.8 7.8 7.9 7.9 7.8 7.5 7.2 7.0 6.9 6.6 6.2 5.9 5.6 5.4 5.2 5.1 4.9 5.0 5.0 5.1 5.0 5.9 6.0 6.1 6.0 6.0 6.0 5.9 5.7 5.5 5.4 5.1 4.8 4.6
8.2 9.1 9.4 9.5 9.6 8.6 9.2 9.6 8.7 8.1 7.9 8.1 8.3 7.7 6.8 7.5 7.6 7.7 7.4 7.2 7.0 6.8 6.6 6.4 6.2 6.0 5.9 5.7 5.3 5.2 5.1 4.9 4.7 4.9 5.1 5.0 5.5 5.8 6.1 5.9 5.8 5.6 5.4 5.2 5.2 4.8 4.4 3.9 3.7
9.2 9.1 9.1 9.3 9.5 9.6 9.6 9.4 9.5 8.8 8.7 7.8 7.0 6.7 6.5 7.1 7.3 7.1 7.0 6.8 6.6 6.5 6.4 6.2 5.9 5.8 5.6 5.4 5.3 5.2 5.2 5.0 4.9 5.0 5.1 5.5 5.5 5.4 5.3 5.3 5.2 5.0 4.8 4.1 3.6 4.0 3.6 3.3 2.9
9.0 9.4 9.4 9.2 9.5 9.6 9.2 9.2 9.6 8.7 8.1 8.0 7.0 6.6 6.3 6.7 6.9 6.7 6.7 6.5 6.4 6.2 6.0 5.9 5.7 5.6 5.5 5.4 5.3 5.2 5.2 5.0 5.3 5.5 5.5 5.6 5.4 5.3 5.3 5.3 5.3 5.1 4.9 4.5 4.2 3.8 3.5 3.3 3.4
8.9 9.3 9.4 9.3 9.5 9.8 8.8 9.2 9.3 8.3 8.0 7.5 6.9 6.4 6.2 6.7 6.6 6.5 6.4 6.2 6.1 6.0 5.8 5.7 5.6 5.6 5.5 5.4 5.4 5.4 5.3 5.3 5.5 5.4 5.6 5.7 5.5 5.4 5.5 5.5 5.3 4.9 4.5 4.0 3.4 4.1 3.8 3.8 3.8
9.1 9.0 8.9 9.0 8.5 8.6 9.1 9.4 8.4 8.1 7.6 7.4 6.7 6.4 6.1 6.2 6.5 6.3 6.3 6.1 6.1 6.0 5.9 5.8 5.7 5.6 5.6 5.5 5.4 5.3 5.3 5.3 5.6 5.7 5.5 5.4 5.4 5.5 5.3 5.2 5.1 4.9 4.6 4.3 3.7 3.8 4.1 4.1 4.1
8.5 8.6 8.7 8.7 8.4 8.7 9.7 9.7 9.6 7.6 7.3 7.4 6.9 6.6 6.4 6.1 6.0 5.7 5.8 6.2 6.0 6.0 6.0 5.9 5.7 5.7 5.5 5.4 5.6 5.4 5.4 5.5 5.5 5.6 5.4 5.4 5.6 5.6 5.4 5.1 4.8 4.6 4.5 4.3 3.9 3.8 4.0 4.4 4.6
8.2 8.3 8.4 8.6 8.7 8.8 9.1 9.6 8.5 8.1 7.6 7.2 7.0 6.6 6.4 6.1 5.9 5.7 5.5 5.8 6.1 6.0 6.0 6.0 5.8 5.7 5.7 5.6 5.6 5.5 5.7 5.4 5.4 5.4 5.4 5.5 5.5 5.3 5.1 4.9 4.8 4.6 4.5 4.4 4.1 4.4 4.4 4.6 4.8
8.2 8.5 8.5 8.3 8.7 8.2 8.1 8.8 8.2 8.0 7.4 7.2 7.1 6.7 6.5 6.2 5.9 5.7 6.2 6.3 6.2 6.2 6.0 6.0 6.0 5.8 5.5 5.7 5.8 5.8 5.7 5.4 5.3 5.4 5.4 5.3 5.2 5.1 5.0 4.9 4.8 4.7 4.6 4.5 4.6 4.6 4.8 4.8 5.4
Wind_Speed
11 15 9 8 8 8 17 19 5 10 10 3 9 7 11 17 10 6 11 14 19 16 21 19 17 16 15 16 16 16 17 15 14 14 14 14 14 13 13 13 12 12 11 11 12 13 13 13 13
12 6 7 9 10 14 14 22 9 14 15 14 14 7 10 10 11 10 8 9 18 18 21 19 18 17 15 16 15 15 15 14 14 13 12 12 12 12 12 13 13 12 11 11 12 13 12 13 13
11 9 9 10 14 15 9 7 16 14 9 6 6 12 7 6 11 4 11 10 15 15 19 24 18 18 16 15 14 14 14 14 13 12 11 11 11 12 12 13 12 11 11 11 12 11 11 11 11
6 6 9 10 18 15 9 9 17 14 10 8 12 11 9 9 2 3 11 12 13 12 18 23 20 19 17 15 14 14 14 14 13 11 11 11 10 11 12 12 12 11 10 11 10 10 10 11 12
8 9 12 14 19 3 7 16 9 11 9 9 6 9 11 7 12 2 6 11 10 13 20 19 19 18 16 15 14 14 13 13 12 12 12 11 11 11 12 12 11 11 10 9 9 10 10 12 12
8 11 13 14 15 7 9 12 11 13 12 10 10 11 7 11 15 16 9 9 2 15 18 18 17 17 15 14 15 13 12 12 12 12 12 11 10 11 11 10 11 10 9 8 9 8 9 9 9
15 12 16 14 1 6 12 10 14 7 11 1 18 11 7 17 14 11 8 11 8 14 16 17 16 14 14 13 13 11 11 11 11 11 12 11 11 11 11 10 9 8 6 6 6 6 7 6 6
13 12 19 12 5 8 5 16 16 11 12 5 9 6 9 15 15 13 4 10 15 13 15 17 18 16 14 12 11 10 10 10 11 11 11 11 11 10 11 11 8 5 4 3 4 4 3 2 1
12 12 13 8 10 9 9 16 8 13 11 7 6 6 13 20 19 16 21 13 11 10 12 15 14 12 14 14 11 11 10 10 10 10 8 12 9 10 11 10 6 3 2 0 1 3 5 7 8
12 12 5 11 9 7 7 12 8 4 6 1 10 16 16 19 18 18 15 15 13 13 11 9 11 9 8 12 11 11 11 10 10 9 8 8 2 7 8 6 6 6 5 6 6 6 10 13 9
14 15 6 9 11 11 12 13 5 6 4 11 8 15 16 19 15 13 12 15 14 14 11 10 10 9 7 10 10 9 8 7 7 5 4 6 2 3 6 5 11 10 10 9 7 7 9 9 9
11 11 6 8 12 6 13 11 16 15 17 3 18 18 17 18 16 17 17 15 15 13 11 12 12 9 9 9 8 7 7 7 6 5 2 3 3 1 5 5 4 3 4 6 7 10 6 8 8
10 2 8 14 13 4 11 11 10 11 4 10 18 19 18 15 14 13 14 15 15 13 13 12 12 10 9 7 8 7 5 5 11 8 8 9 8 6 4 4 7 6 8 6 7 9 10 9 10
7 10 6 3 3 3 13 7 11 10 11 17 17 17 15 14 15 15 15 14 13 14 13 12 12 11 10 9 9 9 9 9 8 9 10 7 7 5 3 3 3 5 7 10 9 9 10 11 12
7 8 8 7 7 6 10 9 11 10 14 16 14 14 14 15 15 13 13 13 12 12 13 12 12 12 10 12 13 12 14 15 15 10 10 8 6 5 6 7 7 6 6 6 10 10 10 10 13
10 11 13 17 12 6 13 13 9 12 13 14 15 14 13 13 12 12 10 10 11 12 12 12 10 13 13 13 14 13 9 9 7 6 8 7 5 6 3 6 5 3 5 3 6 7 8 9 10
10 10 12 6 15 9 11 13 12 11 13 14 14 14 13 13 11 9 7 7 8 11 12 12 12 15 13 13 8 7 13 3 9 6 6 4 4 4 4 3 3 5 5 7 7 7 8 9 10
8 12 11 14 12 10 11 13 11 11 13 14 13 13 12 11 10 7 7 6 8 10 13 14 11 12 10 10 5 5 4 7 5 7 7 7 4 2 3 3 4 6 6 6 6 8 8 9 10
3 9 10 9 10 12 12 8 9 13 12 10 10 11 11 11 8 7 5 5 6 9 12 15 14 13 8 6 5 6 4 6 7 9 6 4 4 2 3 5 5 6 6 5 6 7 9 8 10
5 5 10 8 10 8 7 10 10 11 12 12 14 13 13 10 9 7 8 8 9 9 12 12 12 13 10 7 5 7 9 9 7 8 6 4 2 3 3 6 7 6 6 7 6 8 8 9 9
7 5 10 12 10 13 9 12 12 11 10 9 11 11 11 13 11 11 11 10 10 9 11 14 14 12 10 9 7 6 5 6 6 6 6 5 3 4 5 6 7 7 7 6 7 8 9 9 9
7 2 0 4 13 14 16 11 13 13 13 12 12 10 12 11 11 11 12 14 14 14 12 12 12 11 9 8 8 9 8 3 4 3 3 2 2 6 6 7 7 7 8 8 7 9 9 10 10
12 3 4 7 11 12 16 8 21 17 16 16 14 14 13 14 14 14 15 15 14 12 11 10 10 9 8 4 5 4 2 2 3 1 2 3 6 6 6 8 7 9 10 10 9 10 10 9 10
5 4 6 7 10 8 14 10 8 14 12 16 14 14 15 14 14 15 16 15 13 10 10 9 10 9 8 6 4 2 2 2 1 2 4 5 4 5 6 7 9 12 13 10 10 8 10 10 9
7 7 7 6 6 9 4 4 15 9 3 10 14 15 15 14 15 15 16 14 13 13 11 9 10 9 8 7 6 5 4 3 3 3 5 6 6 6 7 11 11 13 16 16 12 9 11 10 9
9 9 5 5 8 6 6 7 3 9 4 4 13 15 15 15 15 15 15 12 12 12 11 10 10 9 8 7 7 5 2 3 3 4 5 7 7 7 11 12 14 17 18 15 13 7 9 10 8
5 7 5 5 3 6 10 5 7 7 8 9 14 16 16 17 16 15 14 11 11 10 11 9 9 8 7 7 4 4 1 2 5 6 7 6 7 7 11 13 14 17 18 18 14 7 12 10 9
9 3 4 5 3 7 9 7 6 10 10 11 14 16 17 17 16 14 12 11 10 11 9 7 8 9 8 7 4 2 3 7 5 6 7 7 7 9 10 11 13 14 16 17 13 7 11 11 7
7 9 7 4 3 4 4 2 8 7 9 12 14 15 17 17 16 13 11 10 8 7 9 9 9 10 7 4 4 5 4 4 5 6 6 6 7 10 11 11 12 12 13 14 12 9 10 11 10
9 8 9 6 7 5 4 4 4 6 7 10 12 14 16 16 14 12 10 10 10 11 11 11 8 8 5 1 8 4 5 5 7 6 6 7 8 11 11 12 12 12 13 12 10 11 10 11 9
Wind_Direction
208 222 238 250 242 232 256 239 155 148 168 105 84 11 66 45 3 98 74 99 124 133 136 141 126 120 113 112 108 108 106 109 107 100 96 94 95 92 87 82 77 72 70 66 64 60 56 53 44
258 245 240 267 245 246 235 237 163 82 100 89 59 103 44 64 55 112 113 115 121 136 145 140 129 122 119 116 114 110 114 115 107 102 96 94 90 89 84 77 73 73 72 71 66 60 53 48 42
254 245 262 227 234 254 293 34 86 96 93 110 108 63 28 15 41 67 126 125 130 134 146 130 134 126 122 117 120 119 118 109 101 100 97 93 91 90 87 85 82 80 75 69 63 61 52 47 37
220 210 251 258 253 237 312 78 110 130 149 94 107 78 87 43 69 67 136 148 129 126 132 126 137 130 125 124 124 122 110 106 107 105 102 93 92 91 88 85 82 79 73 68 64 56 48 45 35
236 252 243 231 254 37 270 116 165 111 95 104 83 106 116 135 113 123 130 128 147 129 122 133 136 129 128 134 127 112 113 117 106 102 99 99 94 91 89 87 87 83 77 70 62 59 45 39 32
229 245 248 243 235 149 253 137 115 118 95 94 101 122 118 125 157 163 163 132 140 124 130 133 131 132 134 125 117 121 122 112 110 105 102 100 100 96 96 95 88 77 69 72 68 55 46 37 25
248 226 255 285 31 227 206 75 128 144 77 33 145 130 125 157 159 146 146 141 116 120 126 130 129 125 115 120 124 128 119 113 111 110 108 113 114 113 105 97 92 85 78 64 58 47 38 31 20
242 270 263 246 213 214 248 116 124 153 118 120 307 169 162 151 162 143 148 179 153 144 142 137 143 148 145 139 127 120 113 111 112 115 124 128 129 130 124 122 97 88 71 49 30 5 349 329 352
236 262 246 281 348 190 135 109 58 270 148 185 167 358 131 141 151 166 161 166 140 155 137 131 140 142 141 140 133 125 117 123 128 130 156 179 149 169 162 100 111 138 129 151 311 300 290 267 238
232 234 35 294 114 73 215 79 92 45 48 201 137 77 119 153 162 158 155 148 149 135 135 124 122 130 143 133 157 138 140 156 160 160 182 214 98 45 46 121 181 194 199 223 221 239 260 256 284
216 263 321 235 97 210 129 138 130 29 215 223 179 137 152 165 157 160 161 153 145 143 131 132 123 134 157 112 154 151 159 142 147 140 223 83 205 158 216 186 205 200 181 257 218 227 270 355 327
253 247 294 103 83 117 101 121 145 163 226 315 109 137 158 159 161 168 168 146 136 137 141 138 135 137 125 144 159 126 139 152 169 146 200 198 279 300 305 336 350 215 343 347 299 315 345 312 321
253 35 67 296 152 110 141 171 260 179 91 109 122 143 156 155 162 149 142 150 145 149 143 138 140 136 132 136 112 92 101 48 20 0 15 354 334 330 308 353 351 10 332 321 330 331 327 319 305
148 87 133 90 128 255 178 195 264 82 107 117 137 146 144 155 154 148 150 150 153 144 143 140 139 139 141 103 95 91 66 82 60 37 4 343 348 345 336 1 309 351 6 3 341 352 322 321 311
122 103 256 235 202 160 243 176 88 109 126 132 142 145 145 143 146 150 148 151 152 149 146 152 142 138 123 103 83 78 55 44 27 19 24 8 11 23 6 33 25 11 15 353 344 339 311 310 309
154 188 207 229 216 201 233 143 126 139 141 143 145 145 147 142 148 149 157 156 158 153 152 153 139 115 94 79 69 63 42 26 44 31 43 34 54 56 66 81 69 21 14 350 328 320 327 318 318
212 206 204 172 200 170 211 142 142 169 165 154 153 158 159 151 153 141 168 172 177 161 158 143 128 117 113 109 106 134 103 336 38 347 75 63 72 79 92 96 68 332 342 350 342 341 329 322 317
205 213 166 163 181 219 209 109 141 184 187 165 162 162 158 163 161 158 176 173 194 165 158 152 122 135 142 128 127 118 101 89 149 200 143 173 130 83 17 84 24 342 347 344 353 328 324 318 316
262 177 182 159 160 206 192 135 162 174 185 175 167 175 173 177 145 172 154 169 169 153 135 136 150 174 168 178 176 168 154 155 186 173 148 162 95 90 11 359 2 354 335 335 326 326 319 320 320
216 162 173 134 180 253 180 171 170 185 201 180 188 183 178 159 175 160 158 153 154 153 141 156 181 174 197 186 166 160 161 171 160 140 141 106 91 50 15 353 339 352 329 321 328 323 318 316 326
207 240 189 186 184 231 201 178 179 180 183 202 195 190 178 185 174 170 159 129 117 140 155 173 171 179 181 145 136 142 115 126 174 165 172 82 25 17 357 330 321 314 304 314 324 318 310 317 313
281 20 56 183 188 206 204 239 191 177 177 189 195 188 186 164 165 156 145 145 151 152 158 150 153 157 142 170 151 168 186 173 75 58 83 307 344 331 318 306 303 305 308 305 308 322 324 304 312
133 144 229 230 243 192 195 252 177 176 178 187 183 191 172 169 159 151 148 140 137 139 144 142 147 133 140 141 161 182 216 130 118 133 317 289 274 250 271 288 293 299 301 307 304 290 290 298 303
132 183 224 249 258 264 264 252 170 179 194 167 178 179 169 165 156 154 142 140 137 135 139 144 143 145 144 149 148 145 127 55 300 322 301 287 305 282 273 287 292 293 292 292 307 327 298 291 289
223 235 254 213 234 242 59 276 255 99 79 151 176 177 172 166 164 162 158 160 156 159 156 158 159 152 152 147 137 119 109 69 298 291 309 321 302 312 317 324 315 312 307 302 303 300 292 295 296
215 296 273 276 292 267 130 243 143 94 128 159 167 176 175 173 172 175 171 172 165 167 170 182 171 161 152 144 134 108 133 319 319 313 310 306 312 310 318 305 299 296 296 293 299 281 281 285 289
165 244 0 301 257 277 267 170 151 142 146 166 170 176 179 179 179 184 178 180 175 177 181 191 174 157 149 124 130 122 40 311 283 300 300 300 310 311 315 313 305 306 304 300 293 276 285 284 304
276 74 211 217 257 256 229 238 111 169 172 177 177 184 181 183 184 189 185 184 187 181 162 181 178 142 150 153 115 107 280 260 299 296 290 308 309 314 311 312 309 306 304 301 300 304 298 299 302
176 226 235 303 253 279 292 159 80 134 166 183 189 188 185 190 190 194 191 172 187 164 151 168 156 158 139 137 146 242 260 291 282 293 302 300 311 312 315 311 309 307 305 301 305 311 298 288 298
297 267 225 236 232 230 294 299 146 137 167 186 192 187 193 194 190 194 184 177 177 173 171 167 145 125 125 142 222 220 259 280 281 286 291 306 308 313 313 311 309 305 305 307 315 309 316 319 302